GFSNGP_925_thetae_336.txt.gz
Theta_e
330 331 331 334 332 332 332 345 344 343 338 340 342 345 363 362 361 354 353 354 350 347 345 346 345 346 351 351 352 355 357 358 359 359 359 358 358 358 357 357 354 353 353 355
329 332 332 335 335 345 347 347 343 341 344 339 340 352 360 357 355 350 349 352 349 346 342 342 342 342 345 347 354 357 358 356 358 361 358 358 358 358 359 359 359 359 359 358
329 328 332 334 336 335 352 345 342 350 349 348 354 357 359 355 351 348 344 348 348 346 345 341 344 347 349 346 350 347 350 347 346 344 353 362 362 362 362 361 361 360 360 360
328 328 334 331 333 338 356 350 351 351 349 350 350 350 353 352 350 348 343 342 344 344 344 341 339 339 343 341 347 351 345 344 339 340 349 355 360 362 361 360 362 362 362 363
326 329 328 339 337 338 351 344 350 349 347 348 351 350 352 350 348 345 341 337 341 341 341 341 339 335 336 335 338 344 344 339 341 350 349 351 353 355 354 354 355 355 356 358
326 332 333 338 337 334 338 346 343 346 346 350 350 355 351 349 347 344 342 338 341 341 342 341 341 340 340 339 338 341 342 342 341 338 341 344 342 343 340 339 342 344 348 354
330 330 340 342 338 336 336 344 343 343 343 347 351 348 347 345 345 344 343 340 341 341 343 342 341 339 339 340 340 340 341 343 342 339 348 342 339 338 338 337 337 338 339 342
340 338 345 339 342 342 340 339 340 340 339 339 338 338 341 341 341 342 343 343 342 343 344 345 341 340 341 340 340 343 346 346 347 347 347 346 338 343 336 335 337 339 337 337
341 344 337 335 335 336 335 337 338 337 339 337 335 339 337 337 336 339 341 342 342 343 345 344 340 341 342 336 338 343 341 339 339 345 344 345 346 349 351 345 344 345 340 335
338 340 338 334 334 333 332 332 330 331 331 332 333 337 337 337 338 338 341 341 342 344 342 341 342 343 344 344 344 347 346 346 348 347 345 344 342 343 349 348 349 346 347 345
336 337 337 336 333 332 332 331 331 332 332 334 336 336 335 334 335 339 341 343 342 343 345 345 345 345 344 343 348 348 347 345 346 342 344 347 345 344 346 347 348 347 346 347
332 333 334 335 333 332 332 333 334 335 340 339 335 336 335 337 342 345 347 347 344 345 346 346 347 348 348 348 351 348 341 342 338 337 342 344 343 344 346 346 346 347 346 346
329 331 334 333 333 334 333 333 334 333 337 337 337 336 336 339 344 344 344 345 344 344 347 346 348 349 348 350 352 348 348 345 339 339 338 335 336 339 342 342 343 345 347 347
330 333 335 335 336 331 332 333 336 337 337 336 337 338 339 343 343 342 345 348 348 350 352 349 350 350 348 347 336 341 345 341 332 329 331 337 333 335 341 341 340 340 340 343
330 327 330 331 330 329 331 333 335 335 337 338 338 338 339 343 343 345 343 346 348 348 348 348 347 346 347 344 339 342 340 336 329 331 336 338 334 333 336 339 336 338 334 338
332 328 327 329 330 330 331 334 334 334 336 336 336 337 342 342 341 340 339 339 342 346 349 346 344 342 339 334 336 340 342 341 338 337 332 335 338 335 337 336 334 335 331 333
333 331 329 330 329 329 331 332 333 334 336 336 336 337 337 337 338 338 340 341 343 346 346 344 343 342 342 334 331 332 336 344 339 336 339 338 340 340 339 331 331 337 338 339
328 328 326 326 330 333 335 334 334 337 336 335 335 334 336 337 337 339 337 338 344 345 343 344 342 343 344 345 344 344 345 344 341 337 337 336 338 340 340 334 335 335 333 337
330 331 332 329 332 334 334 334 336 336 334 334 334 333 336 335 335 335 335 334 337 341 340 339 342 339 336 338 342 339 339 340 339 339 334 332 332 332 336 335 336 333 328 337
332 332 332 332 333 336 333 336 334 333 333 333 335 334 334 334 334 334 334 337 337 339 336 340 334 328 327 326 334 340 342 340 338 335 337 334 335 331 331 330 337 338 334 338
332 332 332 331 333 337 335 333 332 332 332 333 333 332 332 332 333 333 333 333 339 336 337 332 331 329 329 329 327 332 342 341 339 335 333 335 337 336 338 339 340 339 340 339
331 331 332 332 334 334 334 332 332 332 332 332 332 332 332 332 332 331 332 333 333 335 337 332 330 327 328 328 328 330 340 342 342 339 336 339 336 334 337 336 337 338 339 340
332 334 335 332 334 334 333 332 333 333 332 332 331 331 332 331 330 328 327 332 335 330 331 330 327 326 328 328 328 331 333 340 340 339 338 339 338 338 338 336 335 336 338 341
333 333 334 336 334 333 333 334 334 333 332 331 331 331 331 329 329 330 331 335 333 326 326 326 327 327 326 326 327 329 330 333 340 339 336 338 340 340 339 336 336 335 337 339
331 334 334 333 332 333 334 333 332 332 332 331 331 331 330 330 331 331 331 329 327 326 326 326 326 326 326 326 326 326 327 327 329 339 340 338 336 338 337 336 334 333 334 336
336 333 334 333 333 334 333 333 333 333 331 331 332 330 330 331 331 331 331 328 325 324 323 324 324 324 326 326 327 327 327 327 326 325 326 327 330 335 335 334 335 335 334 334
333 334 333 333 334 334 334 333 332 332 332 331 331 330 329 330 329 325 323 322 321 322 322 323 322 322 322 323 324 324 324 324 324 324 325 325 326 328 336 335 334 334 334 334

GFSNGP_925_thetae_339.txt.gz
Theta_e
328 328 329 332 334 333 330 340 340 343 343 340 340 343 354 353 357 353 353 351 347 344 342 344 345 348 351 352 354 355 355 356 356 357 358 357 357 356 355 356 355 351 352 356
327 327 330 335 335 344 345 340 339 337 340 335 337 352 358 356 352 349 350 351 346 342 342 342 344 348 350 351 353 355 355 356 356 357 357 358 359 360 359 359 358 358 357 354
327 325 329 334 335 341 347 342 338 341 340 339 346 360 354 352 348 345 343 347 348 344 342 344 347 349 350 351 346 350 352 344 347 349 345 341 342 352 359 359 359 360 359 359
325 325 335 332 331 334 344 343 349 349 347 348 353 354 353 347 345 342 341 344 344 344 344 343 346 348 347 346 344 345 350 342 339 346 342 337 347 352 354 354 352 355 358 360
324 326 327 338 336 350 350 352 347 349 349 351 351 351 353 348 344 341 338 340 341 341 339 338 337 337 342 339 340 346 349 343 343 343 341 348 349 347 347 349 352 352 354 357
324 330 331 334 336 338 341 354 341 345 349 351 349 355 352 349 347 343 339 339 341 341 340 340 338 336 337 338 337 337 339 344 344 342 341 338 341 341 340 339 340 342 344 350
327 328 335 335 340 335 340 339 342 344 347 348 349 346 346 346 346 343 341 339 341 340 340 340 340 340 339 338 339 338 340 340 341 341 340 346 344 339 338 337 337 337 337 339
336 337 341 337 339 338 333 338 340 340 341 345 343 345 345 344 344 342 342 342 341 341 342 341 342 340 339 340 339 342 343 348 346 345 342 343 344 344 343 345 340 336 338 338
339 340 333 334 337 336 335 337 339 337 337 335 336 337 337 336 338 340 341 342 343 342 343 342 342 341 340 340 338 341 341 343 344 344 348 348 346 345 347 348 345 344 344 344
336 338 337 334 333 334 332 331 330 330 333 334 337 336 336 335 334 337 339 340 341 342 341 342 341 342 343 343 343 345 346 345 345 345 342 343 344 345 345 347 344 345 344 344
333 335 335 334 332 330 330 329 330 331 330 331 335 336 335 336 336 338 340 340 341 342 343 344 344 343 343 343 346 346 345 343 341 335 339 342 344 343 342 343 344 345 345 346
332 329 332 331 331 331 331 333 335 337 336 334 334 334 335 336 339 343 345 344 343 343 344 344 346 346 346 347 349 342 341 343 338 338 338 336 336 338 342 342 344 346 344 345
329 326 328 333 330 330 330 332 333 336 335 334 333 337 339 340 342 343 344 343 347 348 346 345 346 347 348 350 348 346 343 340 337 337 337 335 335 338 339 338 340 340 341 344
327 332 335 333 332 330 331 332 334 337 336 335 336 338 341 342 341 343 346 347 347 347 349 348 348 349 346 342 343 344 343 339 334 330 333 336 332 334 338 338 339 337 335 337
329 327 328 330 331 329 330 333 334 334 333 335 336 339 340 338 341 341 343 345 345 346 346 344 344 343 343 344 338 342 341 338 331 331 334 337 335 334 334 338 337 335 333 333
332 329 325 329 331 328 329 333 333 335 335 335 336 340 342 343 341 338 338 340 343 344 346 343 342 340 337 333 339 341 341 339 339 341 333 332 332 335 334 337 332 334 334 334
331 331 327 327 327 327 328 331 332 335 335 335 337 341 339 337 336 339 340 341 344 345 343 342 342 342 342 330 332 336 335 340 343 338 337 339 338 338 336 337 335 335 332 336
327 327 324 324 325 326 327 329 333 335 335 335 337 337 335 335 336 337 336 341 344 340 342 341 342 342 341 343 343 343 343 343 343 339 338 337 337 337 339 338 336 330 331 334
329 328 326 325 325 327 329 331 334 335 335 335 334 334 335 336 335 334 333 333 337 337 338 340 337 329 326 331 337 337 335 341 339 338 338 333 333 332 333 336 336 336 337 333
330 330 329 329 328 331 332 333 335 334 333 333 333 334 333 333 333 333 333 336 336 336 336 339 329 328 328 327 330 338 341 339 337 337 335 336 335 335 328 329 332 334 337 331
333 330 329 329 329 333 334 335 333 331 332 333 333 333 333 332 332 332 332 332 340 335 337 330 329 328 328 329 328 328 341 340 338 334 335 335 336 335 336 337 338 338 338 338
332 329 328 329 331 333 334 333 333 331 332 333 332 332 331 331 331 331 331 331 339 336 334 332 330 326 326 327 328 330 337 341 340 340 336 336 337 334 336 335 335 337 338 339
329 331 329 328 330 333 334 332 331 331 331 331 331 331 330 330 330 327 325 328 333 335 333 330 331 326 327 327 327 329 331 334 336 339 338 338 339 338 338 337 336 335 336 338
327 330 330 330 331 331 329 329 330 330 331 332 331 331 330 330 329 329 330 332 333 332 327 326 326 326 326 326 325 326 327 328 333 338 339 337 337 338 339 338 336 335 334 336
325 328 331 330 330 331 331 330 330 330 331 331 331 330 330 328 327 328 331 333 331 326 325 327 326 326 326 326 326 326 326 326 326 327 333 338 338 336 337 337 336 334 334 334
325 326 330 333 331 332 331 330 330 330 329 329 330 330 330 329 330 331 331 331 330 328 325 323 323 323 323 324 324 324 324 326 326 325 325 326 330 332 335 336 334 334 334 334
324 327 331 333 332 332 331 331 330 330 330 330 330 330 330 330 330 331 328 324 322 321 322 322 322 322 321 321 321 322 323 323 323 323 324 324 324 324 325 330 335 334 333 333

GFSNGP_925_thetae_342.txt.gz
Theta_e
327 326 326 330 339 330 332 335 339 338 346 347 344 344 351 356 355 350 350 347 345 344 343 344 345 347 347 348 349 350 350 352 353 353 355 356 357 357 357 357 355 355 356 355
328 324 328 335 334 342 341 338 338 340 345 335 339 357 359 355 346 346 350 348 344 343 342 343 345 347 350 350 351 353 353 354 355 356 356 352 344 339 339 345 357 358 358 357
327 322 328 333 335 336 345 338 337 344 340 338 350 360 357 351 345 341 344 347 346 343 342 345 346 347 348 348 349 351 353 352 353 353 350 346 340 341 343 350 347 347 354 353
323 325 334 330 332 331 341 343 346 346 340 343 351 355 351 347 343 340 342 343 344 343 343 345 348 347 346 344 345 345 346 345 339 338 339 338 338 339 344 347 351 349 340 341
323 325 325 336 338 346 342 345 344 348 348 352 353 352 353 347 342 338 340 340 340 339 339 338 337 337 340 339 341 346 348 346 343 340 341 342 342 344 341 342 344 349 348 347
322 328 330 332 334 335 343 349 342 347 350 354 349 350 349 348 345 341 339 340 340 341 340 339 339 337 336 337 337 336 336 338 340 342 344 343 339 339 341 340 338 338 338 339
325 326 329 329 337 333 343 341 340 346 349 349 349 342 343 346 345 342 340 338 339 340 341 341 340 340 338 338 338 338 338 339 339 340 341 340 341 343 341 337 337 337 337 337
331 334 335 335 338 336 332 337 341 343 346 346 345 345 345 345 346 344 342 341 339 338 339 340 341 340 339 338 337 339 339 340 342 343 343 343 344 344 342 342 344 344 342 342
337 336 330 332 334 335 334 337 338 338 339 343 341 344 343 342 343 343 343 342 342 340 339 340 341 342 340 340 338 341 341 341 341 341 341 346 347 345 344 343 343 343 344 344
336 336 336 333 334 334 335 335 334 334 334 334 336 335 336 334 335 337 339 340 340 340 340 339 340 340 340 341 341 342 344 343 343 345 340 339 343 343 343 344 343 343 344 343
332 333 333 333 332 332 330 329 329 328 332 334 334 335 334 334 334 336 338 339 340 341 342 342 342 341 342 342 343 345 343 341 340 335 339 341 341 340 339 340 342 344 343 344
332 329 331 331 330 329 329 330 331 334 333 333 334 334 334 334 337 340 342 342 341 342 343 343 343 345 344 345 346 345 339 340 339 336 338 337 334 335 340 339 342 343 343 342
328 325 326 329 331 329 329 331 334 334 333 334 333 336 337 339 341 342 343 342 345 346 348 345 344 346 347 347 348 345 341 341 338 334 336 335 335 336 338 337 339 340 343 344
325 329 332 332 332 329 330 331 335 335 334 335 335 338 340 340 340 342 344 346 346 345 347 347 346 347 346 346 345 345 345 343 338 330 330 335 333 336 338 337 336 336 336 339
324 325 326 329 330 328 330 331 334 334 333 334 336 339 340 338 341 343 346 345 344 346 343 343 342 342 343 345 343 339 342 341 337 333 336 334 335 333 333 335 337 336 334 333
328 328 325 326 329 329 329 332 333 333 333 334 336 339 339 339 341 339 339 340 341 343 343 341 340 340 337 331 335 341 340 340 339 337 339 333 333 333 334 334 335 334 334 333
330 331 326 326 327 328 328 330 332 333 334 335 336 338 340 340 336 337 339 340 343 344 342 341 341 341 342 336 331 337 336 337 337 340 339 337 337 337 337 337 336 334 332 333
325 326 326 325 325 326 326 329 331 334 335 336 337 339 338 335 335 337 336 341 343 343 342 341 341 340 338 341 343 341 341 341 341 340 338 337 335 332 332 336 338 336 331 331
331 326 326 326 325 324 324 326 331 335 335 335 337 336 336 335 335 335 333 337 338 337 338 341 331 326 326 331 335 337 337 338 339 338 337 335 334 334 328 330 333 332 334 335
330 332 330 328 327 324 326 329 330 334 335 335 336 334 333 334 334 333 332 331 336 336 337 339 329 328 328 328 327 328 337 340 338 336 334 334 334 336 335 336 333 333 333 336
327 330 331 328 327 328 328 330 332 332 333 334 334 333 333 334 333 332 331 334 337 335 336 334 329 328 327 327 327 328 339 340 339 336 333 333 336 335 335 335 335 336 338 337
325 326 328 329 327 327 330 331 333 332 332 332 332 333 332 331 331 330 330 336 338 334 336 331 330 328 326 326 327 330 332 338 339 339 338 337 337 336 335 337 335 335 334 336
322 324 325 327 328 327 330 332 333 333 331 331 332 332 332 331 330 329 328 331 335 338 334 333 331 330 327 326 326 328 329 330 332 335 337 336 337 337 337 337 336 334 334 335
319 321 323 325 328 326 329 330 331 332 333 332 332 332 331 329 329 328 328 329 330 333 334 330 328 327 326 326 325 325 325 325 326 329 335 338 337 336 336 336 336 335 334 333
319 320 322 325 327 327 329 330 329 329 330 330 331 331 330 328 330 329 328 329 331 333 330 325 325 325 326 325 325 325 325 326 326 326 326 327 333 336 336 335 335 335 334 333
319 321 322 324 327 329 330 329 329 328 328 328 329 330 330 328 328 327 332 333 332 329 325 326 327 327 325 324 323 324 323 323 324 325 325 324 324 325 327 328 329 334 334 333
318 320 321 323 326 330 330 329 329 329 329 329 329 330 329 328 328 328 330 330 330 329 327 324 323 322 322 321 321 320 320 321 323 323 322 323 323 323 323 323 325 325 333 334

GFSNGP_925_thetae_345.txt.gz
Theta_e
331 330 330 332 341 337 337 340 340 346 351 351 350 361 365 361 355 357 356 354 353 352 352 351 351 352 351 349 350 349 352 352 352 353 353 355 355 356 356 357 355 355 360 360
335 329 334 341 341 344 338 342 344 347 348 347 357 364 358 352 351 357 356 354 352 351 349 350 351 351 352 353 353 355 355 355 356 357 358 358 355 347 342 343 346 347 340 350
337 330 335 340 341 344 347 342 344 346 347 351 365 355 351 347 347 349 349 350 351 351 351 352 352 351 350 349 349 354 355 353 354 352 351 344 342 341 342 346 345 346 345 340
334 335 337 336 339 340 344 342 345 345 348 355 357 353 351 346 346 346 347 346 347 346 347 347 346 343 344 346 349 351 351 348 343 346 346 345 340 340 341 343 344 344 351 347
335 334 333 340 342 346 347 345 349 347 349 360 357 351 353 347 344 345 346 344 343 343 342 341 340 341 342 341 343 350 351 350 349 347 345 346 349 345 339 339 340 342 343 346
333 333 335 339 339 341 347 346 349 350 354 359 356 349 355 350 346 344 344 344 345 344 343 343 343 342 341 343 342 341 341 342 343 343 347 348 347 344 342 341 341 342 342 340
334 334 332 335 338 338 352 346 348 351 355 358 353 349 352 351 349 345 344 343 343 344 345 345 343 343 344 343 342 341 339 339 340 342 342 343 341 346 343 342 339 340 341 341
337 339 336 339 343 345 343 343 347 352 355 356 352 351 353 352 350 347 346 345 342 343 344 344 344 343 345 344 340 340 341 343 347 347 346 346 345 345 343 342 345 346 346 345
345 343 341 339 341 340 341 347 346 353 352 353 350 352 352 351 350 349 348 347 344 344 345 345 344 343 346 344 337 340 343 345 343 343 346 348 349 349 348 346 345 345 345 346
345 343 342 340 340 340 341 344 343 345 349 349 346 345 347 347 347 347 347 346 344 344 345 345 342 342 342 341 341 341 346 347 346 347 339 338 341 341 342 345 345 346 346 345
342 341 340 339 340 341 338 338 339 340 342 346 344 342 343 345 343 344 344 343 344 346 347 347 343 342 342 342 342 344 348 346 345 339 342 340 338 338 338 339 340 341 342 341
341 345 344 343 339 336 338 338 338 338 337 338 340 342 341 341 341 343 344 345 346 348 348 348 346 347 345 343 343 348 347 343 342 340 339 341 337 338 336 337 338 339 338 339
338 334 336 335 334 334 337 336 335 337 337 338 339 340 341 343 346 345 347 347 350 349 351 351 348 348 349 347 346 350 348 346 343 338 339 338 339 340 342 338 338 338 338 338
330 334 336 336 336 335 334 334 336 338 338 339 340 342 343 345 344 347 348 349 348 348 349 350 350 351 347 345 348 349 348 345 343 338 337 338 338 338 339 341 340 336 334 336
331 331 332 332 333 336 334 335 339 340 340 339 340 342 344 345 346 346 349 349 348 348 347 345 346 345 341 342 343 345 345 345 343 340 339 339 339 338 337 338 339 341 335 333
331 333 332 331 332 336 335 336 339 341 341 340 340 343 345 345 345 347 347 346 346 346 348 346 344 341 339 335 331 342 344 341 340 342 342 341 340 340 340 339 339 338 337 333
333 337 334 334 334 335 335 337 339 340 340 340 340 343 344 343 344 343 343 343 344 346 347 343 344 340 341 341 332 339 341 339 338 342 343 341 341 340 340 340 340 340 337 335
335 334 332 333 333 333 335 335 336 338 340 340 341 343 343 343 344 343 343 342 345 346 345 342 340 339 336 337 341 341 342 342 343 344 341 341 338 337 336 337 341 341 336 333
333 337 335 332 332 332 332 333 334 336 338 340 341 342 344 343 344 342 339 342 344 344 344 341 337 327 327 328 331 335 340 342 342 342 340 336 338 339 337 334 336 337 337 338
332 333 335 335 333 333 332 331 332 335 339 339 340 342 343 342 341 340 337 337 338 341 340 342 330 328 327 328 327 330 334 342 342 340 338 338 338 339 339 339 339 340 338 339
328 330 332 333 335 334 332 332 332 334 336 339 341 342 343 341 339 338 337 336 335 336 336 339 333 329 326 327 328 331 338 343 342 341 339 339 341 339 339 340 339 339 340 341
323 327 328 330 332 335 334 333 333 335 337 338 339 340 341 339 337 336 336 336 335 336 336 339 332 329 327 326 329 330 334 339 341 342 341 339 340 340 340 341 340 337 337 339
320 323 326 328 330 331 332 334 334 335 337 337 338 339 339 338 336 335 335 333 334 337 336 336 331 330 328 326 328 329 330 332 335 337 340 341 340 340 340 340 339 338 337 337
319 320 323 326 328 331 335 334 333 334 337 337 337 337 337 336 335 334 333 329 334 336 337 336 333 331 328 328 326 326 327 329 330 331 333 333 340 340 339 339 339 338 336 335
318 319 322 324 326 329 330 333 333 333 335 336 336 337 336 335 334 332 330 329 329 331 336 335 329 326 326 328 328 327 325 326 325 327 330 331 332 335 336 335 335 335 338 336
318 319 320 322 324 326 329 332 333 333 333 335 335 334 334 333 333 330 329 330 329 328 332 333 326 325 328 328 327 326 326 326 325 326 325 328 330 331 331 331 331 333 334 336
318 318 320 321 323 324 325 326 331 333 333 333 335 334 334 333 331 329 330 331 331 330 332 329 326 327 327 326 324 323 323 322 321 322 324 324 323 324 326 327 326 326 329 332